Location: Lawrence Hall of Science
(37.8785°N, 122.2415°W)
Time: 10:33:49
(UTC-07:00)

ARGOS - Visible Passes

Search period start: 17 September 2014 00:00
Search period end: 27 September 2014 00:00
Orbit: 821 x 835 km, 98.8° (Epoch: 17 September)

Date Brightness Start Highest point End Pass type
(mag) Time Alt. Az. Time Alt. Az. Time Alt. Az.
17 Sep 5.1 22:18:48 22° N 22:18:48 22° N 22:20:41 10° N visible
18 Sep 5.1 22:00:17 19° NNE 22:00:17 19° NNE 22:02:00 10° N visible
18 Sep 6.1 23:41:49 11° NW 23:41:49 11° NW 23:42:02 10° NW visible
19 Sep 5.2 21:41:46 16° NNE 21:41:46 16° NNE 21:43:08 10° NNE visible
19 Sep 5.9 23:23:18 14° NNW 23:23:18 14° NNW 23:24:00 10° NNW visible
20 Sep 5.4 21:23:14 12° NNE 21:23:14 12° NNE 21:23:59 10° NNE visible
20 Sep 5.7 23:04:46 16° NNW 23:04:46 16° NNW 23:05:47 10° NNW visible
21 Sep 5.5 22:46:15 17° NNW 22:46:15 17° NNW 22:47:25 10° NNW visible
22 Sep 5.4 22:27:43 17° N 22:27:43 17° N 22:28:55 10° N visible
23 Sep 5.4 22:09:12 16° N 22:09:12 16° N 22:10:18 10° N visible
24 Sep 5.4 21:50:41 14° NNE 21:50:41 14° NNE 21:51:31 10° N visible
25 Sep 5.5 21:32:09 11° NNE 21:32:09 11° NNE 21:32:30 10° NNE visible
25 Sep 6.0 23:13:41 11° NNW 23:13:41 11° NNW 23:13:52 10° NNW visible
26 Sep 5.9 22:55:10 12° NNW 22:55:10 12° NNW 22:55:34 10° NNW visible
